Location: Arena
(42.5007°N, 9.4650°E)
Time: 09:44:31
(UTC+00:00)

ARGOS Delta rocket - Pass Details

Date: 09 April 2020
Orbit: 634 x 839 km, 96.4° (Epoch: 04 June)

Event Time Altitude Azimuth Distance (km) Brightness Sun altitude
Rises 18:42:58 0° 172° (S) 3,277 7.0 -8.9°
Reaches altitude 10° 18:45:16 10° 174° (S) 2,376 6.3 -9.3°
Maximum altitude 18:50:35 76° 260° (W) 856 4.4 -10.2°
Drops below altitude 10° 18:56:05 10° 346° (NNW) 2,461 7.1 -11.1°
Sets 18:58:30 0° 348° (NNW) 3,403 7.9 -11.6°
